Flag for Germany Weather past 2 weeks in Brühl (Rhineland), North Rhine-Westphalia, Germany

Now
42 °F

Passing clouds.


Feels Like: 39 °F
Forecast: 38 / 44 °F
Wind: 5 mph from Southwest

Location: Noervenich

Current Time: Dec 19, 2014 at 9:20:24 PM

Latest Report: Dec 19, 2014 at 8:00 PM


Visibility: 16 mi

Pressure: 30.08 "Hg

Humidity: 86%

Dew point: 38 °F

Location of Brühl (Rhineland)Location

Historic Weather in Brühl (Rhineland) — Graph

°F

Brühl (Rhineland) temperature yesterday

Maximum temperature yesterday: 55 °F (at 6:00 PM)
Minimum temperature yesterday: 50 °F (at 12:00 AM)
Average temperature yesterday: 52 °F

Past Weeks' High & Low Weather Summary

 TemperatureHumidityPressure
High55 °F (Dec 18, 6:00 PM)99% (Dec 14, 6:00 AM)30.40 "Hg (Dec 14, 6:00 AM)
Low33 °F (Dec 14, 8:00 AM)63% (Dec 7, 2:00 PM)29.44 "Hg (Dec 12, 3:00 PM)
Average42 °F85%29.98 "Hg
* Reported Dec 4 8:00 PM — Dec 19 8:00 PM, Brühl (Rhineland), Weather by CustomWeather, © 2014

Note: Actual official high and low records may vary slightly from our data, if they occured in-between our weather recording intervals... More about our weather records

Advertising

Brühl (Rhineland) weather history for previous 24 hours

 ConditionsComfort  
Time TempWeatherWind HumidityBarometerVisibility
8:00 PM
Dec 19
42 °FPassing clouds.5 mph86%30.08 "Hg16 mi
6:00 PM46 °FPassing clouds.3 mph81%30.02 "Hg12 mi
5:00 PM46 °FOvercast.5 mph78%29.98 "Hg12 mi
3:00 PM49 °FRain. Overcast.6 mph92%29.91 "Hg4 mi
2:00 PM52 °FRain. Overcast.8 mph90%29.85 "Hg6 mi
1:00 PM53 °FLight rain. Overcast.8 mph85%29.86 "Hg7 mi
12:00 PM53 °FLight rain. Overcast.8 mph85%29.86 "Hg5 mi
11:00 AM53 °FRain. Overcast.7 mph84%29.88 "Hg4 mi
9:00 AM53 °FLight rain. Passing clouds.2 mph81%29.87 "Hg3 mi
8:00 AM54 °FLight rain. Overcast.7 mph77%29.86 "Hg12 mi
6:00 AM54 °FOvercast.7 mph76%29.90 "Hg16 mi
5:00 AM54 °FOvercast.7 mph79%29.92 "Hg16 mi
3:00 AM53 °FOvercast.8 mph81%29.94 "Hg16 mi
2:00 AM53 °FPassing clouds.10 mph84%29.94 "Hg16 mi
1:00 AM53 °FPassing clouds.12 mph84%29.93 "Hg16 mi
12:00 AM54 °FOvercast.7 mph82%29.94 "Hg16 mi
11:00 PM
Dec 18
54 °FOvercast.7 mph81%29.93 "Hg16 mi
9:00 PM54 °FOvercast.6 mph82%29.93 "Hg16 mi
Weather by CustomWeather, © 2014

See weather overviewHow to use our weather pages